When you browse on this site, cookies collect data to enhance your experience and personalize the content and advertising you see.
Visit our Privacy Policy to learn more. By continuing to use the site, you agree to this use of cookies and data.
  • In Hungary
  • List of Countries
  • For 7 days
  • Water Temperature
  • Weather Map
  • News
  • Weather Widgets
  • user-avatar
    Login

    Hourly Weather Siena

    Today, 17 November, Sunday

    Time Temperature Precipitation Wind Pressure Humidity
    00:00 +9°C° 1.6 mm 5 mps 727 mmHg 92%
    01:00 +9°C° 0 mm 5 mps 726 mmHg 91%
    02:00 +9°C° 4.7 mm 5 mps 726 mmHg 93%
    03:00 +10°C° 4.7 mm 4 mps 725 mmHg 94%
    04:00 +10°C° 4.7 mm 3 mps 724 mmHg 96%
    05:00 +11°C° 3.3 mm 3 mps 724 mmHg 95%
    06:00 +11°C° 3.3 mm 3 mps 724 mmHg 93%
    07:00 +11°C° 3.3 mm 4 mps 724 mmHg 92%
    08:00 +11°C° 0.4 mm 4 mps 725 mmHg 91%
    09:00 +10°C° 0.4 mm 5 mps 726 mmHg 89%
    10:00 +10°C° 0.4 mm 6 mps 726 mmHg 88%
    11:00 +10°C° 0.1 mm 5 mps 727 mmHg 86%
    12:00 +10°C° 0.1 mm 4 mps 727 mmHg 85%
    13:00 +10°C° 0.1 mm 2 mps 728 mmHg 83%
    14:00 +10°C° 0.1 mm 2 mps 728 mmHg 83%
    15:00 +11°C° 0.1 mm 1 mps 729 mmHg 83%
    16:00 +11°C° 0.1 mm 1 mps 729 mmHg 82%
    17:00 +10°C° 0 mm 1 mps 729 mmHg 84%
    18:00 +9°C° 0 mm 1 mps 730 mmHg 87%
    19:00 +9°C° 0 mm 1 mps 730 mmHg 89%
    20:00 +8°C° 0 mm 1 mps 731 mmHg 89%
    21:00 +8°C° 0 mm 1 mps 731 mmHg 90%
    22:00 +8°C° 0 mm 1 mps 731 mmHg 91%
    23:00 +7°C° 0 mm 1 mps 731 mmHg 90%

    Tomorrow, 18 November, Monday

    Time Temperature Precipitation Wind Pressure Humidity
    00:00 +7°C° 0 mm 1 mps 731 mmHg 90%
    01:00 +7°C° 0 mm 1 mps 731 mmHg 90%
    02:00 +6°C° 0.1 mm 2 mps 731 mmHg 90%
    03:00 +7°C° 0.1 mm 2 mps 731 mmHg 90%
    04:00 +7°C° 0.1 mm 2 mps 732 mmHg 90%
    05:00 +7°C° 0.6 mm 2 mps 732 mmHg 92%
    06:00 +8°C° 0.6 mm 1 mps 732 mmHg 93%
    07:00 +8°C° 0.6 mm 1 mps 732 mmHg 95%
    08:00 +9°C° 0.3 mm 1 mps 733 mmHg 94%
    09:00 +9°C° 0.3 mm 2 mps 733 mmHg 93%
    10:00 +9°C° 0.3 mm 2 mps 733 mmHg 92%
    11:00 +10°C° 0.3 mm 2 mps 733 mmHg 90%
    12:00 +12°C° 0.3 mm 2 mps 733 mmHg 87%
    13:00 +11°C° 0.3 mm 3 mps 734 mmHg 85%
    14:00 +11°C° 0.4 mm 3 mps 733 mmHg 85%
    15:00 +11°C° 0.4 mm 3 mps 733 mmHg 86%
    16:00 +11°C° 0.4 mm 3 mps 733 mmHg 86%
    17:00 +10°C° 0.6 mm 3 mps 732 mmHg 88%
    18:00 +10°C° 0.6 mm 3 mps 732 mmHg 90%
    19:00 +10°C° 0.6 mm 3 mps 732 mmHg 91%
    20:00 +10°C° 0.6 mm 3 mps 732 mmHg 92%
    21:00 +10°C° 0.6 mm 3 mps 732 mmHg 92%
    22:00 +10°C° 0.6 mm 3 mps 731 mmHg 93%
    23:00 +10°C° 0.8 mm 3 mps 731 mmHg 93%

    Day after tomorrow, 19 November, Tuesday

    Time Temperature Precipitation Wind Pressure Humidity
    00:00 +10°C° 0.8 mm 3 mps 731 mmHg 93%
    01:00 +10°C° 0.8 mm 3 mps 731 mmHg 93%
    02:00 +10°C° 1.7 mm 3 mps 731 mmHg 94%
    03:00 +10°C° 1.7 mm 2 mps 731 mmHg 95%
    04:00 +10°C° 1.7 mm 2 mps 731 mmHg 96%
    05:00 +10°C° 0.8 mm 1 mps 731 mmHg 95%
    06:00 +10°C° 0.8 mm 1 mps 732 mmHg 94%
    07:00 +10°C° 0.8 mm 1 mps 732 mmHg 94%
    08:00 +11°C° 0 mm 1 mps 732 mmHg 91%
    09:00 +11°C° 0 mm 1 mps 733 mmHg 88%
    10:00 +11°C° 0 mm 0 mps 733 mmHg 86%
    11:00 +12°C° 0.2 mm 1 mps 733 mmHg 84%
    12:00 +12°C° 0.2 mm 1 mps 733 mmHg 83%
    13:00 +13°C° 0.2 mm 1 mps 733 mmHg 82%
    14:00 +12°C° 0.2 mm 1 mps 734 mmHg 84%
    15:00 +12°C° 0.2 mm 1 mps 734 mmHg 85%
    16:00 +12°C° 0.2 mm 1 mps 734 mmHg 87%
    17:00 +11°C° 0.1 mm 1 mps 734 mmHg 88%
    18:00 +10°C° 0.1 mm 1 mps 734 mmHg 89%
    19:00 +10°C° 0.1 mm 1 mps 734 mmHg 90%
    20:00 +9°C° 0 mm 1 mps 734 mmHg 90%
    21:00 +9°C° 0 mm 1 mps 735 mmHg 90%
    22:00 +9°C° 0 mm 1 mps 735 mmHg 90%
    23:00 +8°C° 0 mm 1 mps 735 mmHg 90%

    20 November, Wednesday

    Time Temperature Precipitation Wind Pressure Humidity
    00:00 +8°C° 0 mm 1 mps 736 mmHg 90%
    01:00 +7°C° 0 mm 1 mps 736 mmHg 91%
    02:00 +7°C° 0 mm 1 mps 736 mmHg 91%
    03:00 +6°C° 0 mm 0 mps 736 mmHg 90%
    04:00 +6°C° 0 mm 0 mps 736 mmHg 90%
    05:00 +6°C° 0 mm 0 mps 736 mmHg 90%
    06:00 +5°C° 0 mm 0 mps 736 mmHg 90%
    07:00 +5°C° 0 mm 0 mps 737 mmHg 89%
    08:00 +7°C° 0 mm 0 mps 737 mmHg 85%
    09:00 +8°C° 0 mm 0 mps 738 mmHg 81%
    10:00 +10°C° 0 mm 0 mps 738 mmHg 77%
    11:00 +11°C° 0 mm 0 mps 738 mmHg 73%
    12:00 +12°C° 0 mm 1 mps 738 mmHg 70%
    13:00 +13°C° 0 mm 1 mps 738 mmHg 66%
    14:00 +13°C° 0 mm 1 mps 738 mmHg 70%
    15:00 +12°C° 0 mm 1 mps 738 mmHg 74%
    16:00 +10°C° 0 mm 0 mps 738 mmHg 78%
    17:00 +10°C° 0 mm 0 mps 738 mmHg 81%
    18:00 +9°C° 0 mm 0 mps 738 mmHg 83%
    19:00 +8°C° 0 mm 0 mps 738 mmHg 86%
    20:00 +8°C° 0 mm 0 mps 738 mmHg 86%
    21:00 +7°C° 0 mm 0 mps 738 mmHg 86%
    22:00 +7°C° 0 mm 0 mps 738 mmHg 86%
    23:00 +8°C° 0 mm 1 mps 738 mmHg 87%

    21 November, Thursday

    Time Temperature Precipitation Wind Pressure Humidity
    00:00 +8°C° 0 mm 1 mps 738 mmHg 87%
    01:00 +8°C° 0 mm 1 mps 738 mmHg 87%
    02:00 +8°C° 0 mm 1 mps 737 mmHg 87%
    03:00 +7°C° 0 mm 1 mps 737 mmHg 87%
    04:00 +7°C° 0 mm 1 mps 737 mmHg 88%
    05:00 +7°C° 0 mm 1 mps 737 mmHg 88%
    06:00 +7°C° 0 mm 1 mps 737 mmHg 89%
    07:00 +7°C° 0 mm 1 mps 737 mmHg 89%
    08:00 +8°C° 0 mm 1 mps 737 mmHg 86%
    09:00 +9°C° 0 mm 1 mps 737 mmHg 83%
    10:00 +10°C° 0 mm 1 mps 737 mmHg 80%
    11:00 +11°C° 0 mm 1 mps 737 mmHg 77%
    12:00 +12°C° 0 mm 1 mps 737 mmHg 75%
    13:00 +13°C° 0 mm 2 mps 737 mmHg 72%
    14:00 +12°C° 0 mm 1 mps 737 mmHg 75%
    15:00 +12°C° 0 mm 1 mps 737 mmHg 79%
    16:00 +12°C° 0 mm 1 mps 736 mmHg 82%
    17:00 +11°C° 0 mm 1 mps 736 mmHg 84%
    18:00 +11°C° 0 mm 1 mps 736 mmHg 85%
    19:00 +9°C° 0 mm 2 mps 736 mmHg 87%
    20:00 +9°C° 0 mm 2 mps 737 mmHg 88%
    21:00 +9°C° 0 mm 2 mps 737 mmHg 89%
    22:00 +9°C° 0 mm 2 mps 737 mmHg 90%
    23:00 +8°C° 0 mm 2 mps 737 mmHg 90%

    22 November, Friday

    Time Temperature Precipitation Wind Pressure Humidity
    00:00 +8°C° 0 mm 2 mps 737 mmHg 91%
    01:00 +8°C° 0 mm 2 mps 737 mmHg 91%
    02:00 +8°C° 0 mm 2 mps 736 mmHg 91%
    03:00 +8°C° 0 mm 2 mps 736 mmHg 92%
    04:00 +8°C° 0 mm 2 mps 736 mmHg 92%
    05:00 +8°C° 0 mm 2 mps 736 mmHg 92%
    06:00 +8°C° 0 mm 2 mps 736 mmHg 92%
    07:00 +8°C° 0 mm 1 mps 736 mmHg 92%
    08:00 +8°C° 0 mm 2 mps 736 mmHg 89%
    09:00 +9°C° 0 mm 2 mps 736 mmHg 85%
    10:00 +10°C° 0 mm 2 mps 737 mmHg 82%
    11:00 +12°C° 0 mm 2 mps 737 mmHg 82%
    12:00 +12°C° 0 mm 2 mps 736 mmHg 81%
    13:00 +13°C° 0 mm 2 mps 736 mmHg 81%
    14:00 +12°C° 0.5 mm 2 mps 736 mmHg 84%
    15:00 +12°C° 0.5 mm 2 mps 736 mmHg 88%
    16:00 +11°C° 0.5 mm 1 mps 736 mmHg 92%
    17:00 +11°C° 0.4 mm 1 mps 736 mmHg 92%
    18:00 +11°C° 0.4 mm 1 mps 736 mmHg 92%
    19:00 +11°C° 0.4 mm 1 mps 736 mmHg 92%
    20:00 +11°C° 0.1 mm 1 mps 736 mmHg 92%
    21:00 +11°C° 0.1 mm 1 mps 736 mmHg 92%
    22:00 +11°C° 0.1 mm 1 mps 736 mmHg 91%
    23:00 +10°C° 0 mm 1 mps 736 mmHg 91%
    Show more